Time,TemperatureF,DewpointF,PressureIn,WindDirection,WindDirectionDegrees,WindSpeedMPH,WindSpeedGustMPH,Humidity,HourlyPrecipIn,Conditions,Clouds,dailyrainin,SoftwareType,DateUTC
2013-04-09 00:07:00,35.0,34.0,29.58,South,180,0.0,9.0,97,-99.99,,,-99.99,,2013-04-09 06:07:00,
2013-04-09 00:17:00,36.0,35.0,29.58,SSE,160,11.0,11.0,96,-99.99,,,-99.99,,2013-04-09 06:17:00,
2013-04-09 00:27:00,36.0,35.0,29.61,WSW,250,11.0,18.0,96,-99.99,,,-99.99,,2013-04-09 06:27:00,
2013-04-09 00:37:00,36.0,34.0,29.60,SW,230,22.0,22.0,95,-99.99,,,-99.99,,2013-04-09 06:37:00,
2013-04-09 00:42:00,36.0,34.0,29.60,South,170,14.0,26.0,95,-99.99,,,-99.99,,2013-04-09 06:42:00,
2013-04-09 00:47:00,35.0,34.0,29.61,South,170,9.0,16.0,95,-99.99,,,-99.99,,2013-04-09 06:47:00,
2013-04-09 00:57:00,35.0,34.0,29.60,SSE,160,7.0,13.0,96,-99.99,,,-99.99,,2013-04-09 06:57:00,
2013-04-09 01:07:00,35.0,34.0,29.60,SSE,150,8.0,16.0,95,-99.99,,,-99.99,,2013-04-09 07:07:00,
2013-04-09 01:17:00,35.0,34.0,29.60,South,180,12.0,15.0,96,-99.99,,,-99.99,,2013-04-09 07:17:00,
2013-04-09 01:22:00,35.0,34.0,29.60,South,170,14.0,15.0,97,-99.99,,,-99.99,,2013-04-09 07:22:00,
2013-04-09 01:27:00,35.0,34.0,29.60,South,180,11.0,12.0,97,-99.99,,,-99.99,,2013-04-09 07:27:00,
2013-04-09 01:37:00,34.0,34.0,29.60,South,180,12.0,13.0,98,-99.99,,,-99.99,,2013-04-09 07:37:00,
2013-04-09 01:47:00,34.0,34.0,29.59,SSE,160,7.0,11.0,98,-99.99,,,-99.99,,2013-04-09 07:47:00,
2013-04-09 01:57:00,34.0,34.0,29.57,NE,50,4.0,8.0,98,-99.99,,,-99.99,,2013-04-09 07:57:00,
2013-04-09 02:02:00,34.0,34.0,29.57,ENE,60,0.0,4.0,98,-99.99,,,-99.99,,2013-04-09 08:02:00,
2013-04-09 02:12:00,34.0,34.0,29.58,East,90,0.0,5.0,99,-99.99,,,-99.99,,2013-04-09 08:12:00,
2013-04-09 02:17:00,34.0,34.0,29.58,ESE,120,0.0,3.0,99,-99.99,,,-99.99,,2013-04-09 08:17:00,
2013-04-09 02:27:00,34.0,34.0,29.57,ESE,120,0.0,0.0,99,-99.99,,,-99.99,,2013-04-09 08:27:00,
2013-04-09 02:32:00,34.0,33.0,29.57,ESE,120,0.0,0.0,99,-99.99,,,-99.99,,2013-04-09 08:32:00,
2013-04-09 02:37:00,34.0,33.0,29.57,South,170,3.0,3.0,99,-99.99,,,-99.99,,2013-04-09 08:37:00,
2013-04-09 02:42:00,34.0,33.0,29.57,SSE,160,0.0,5.0,99,-99.99,,,-99.99,,2013-04-09 08:42:00,
2013-04-09 02:52:00,34.0,33.0,29.56,SSE,160,0.0,0.0,99,-99.99,,,-99.99,,2013-04-09 08:52:00,
2013-04-09 03:02:00,34.0,33.0,29.55,ENE,70,0.0,6.0,98,-99.99,,,-99.99,,2013-04-09 09:02:00,
2013-04-09 03:12:00,34.0,33.0,29.55,ESE,120,6.0,6.0,97,-99.99,,,-99.99,,2013-04-09 09:12:00,
2013-04-09 03:22:00,34.0,33.0,29.54,NE,50,0.0,4.0,97,-99.99,,,-99.99,,2013-04-09 09:22:00,
2013-04-09 03:27:00,34.0,33.0,29.56,SE,140,5.0,5.0,97,-99.99,,,-99.99,,2013-04-09 09:27:00,
2013-04-09 03:32:00,34.0,33.0,29.57,SE,130,10.0,10.0,97,-99.99,,,-99.99,,2013-04-09 09:32:00,
2013-04-09 03:42:00,34.0,33.0,29.57,SE,140,8.0,13.0,94,-99.99,,,-99.99,,2013-04-09 09:42:00,
2013-04-09 03:52:00,33.0,32.0,29.57,South,180,12.0,17.0,97,-99.99,,,-99.99,,2013-04-09 09:52:00,
2013-04-09 03:57:00,32.0,32.0,29.57,ESE,110,9.0,14.0,98,-99.99,,,-99.99,,2013-04-09 09:57:00,
2013-04-09 04:02:00,32.0,32.0,29.56,SE,130,9.0,13.0,100,-99.99,,,-99.99,,2013-04-09 10:02:00,
2013-04-09 04:07:00,32.0,32.0,29.55,South,170,12.0,12.0,100,-99.99,,,-99.99,,2013-04-09 10:07:00,
2013-04-09 04:12:00,31.0,31.0,29.56,South,170,12.0,12.0,100,-99.99,,,-99.99,,2013-04-09 10:12:00,
2013-04-09 04:22:00,32.0,32.0,29.56,South,180,11.0,13.0,100,-99.99,,,-99.99,,2013-04-09 10:22:00,
2013-04-09 04:27:00,31.0,31.0,29.56,SSE,160,6.0,12.0,100,-99.99,,,-99.99,,2013-04-09 10:27:00,
2013-04-09 04:37:00,31.0,31.0,29.55,SE,140,3.0,9.0,100,-99.99,,,-99.99,,2013-04-09 10:37:00,
2013-04-09 04:52:00,31.0,31.0,29.54,ESE,120,0.0,0.0,100,-99.99,,,-99.99,,2013-04-09 10:52:00,
2013-04-09 05:02:00,31.0,31.0,29.54,ESE,120,0.0,0.0,100,-99.99,,,-99.99,,2013-04-09 11:02:00,
2013-04-09 05:07:00,31.0,31.0,29.55,ESE,120,0.0,0.0,100,-99.99,,,-99.99,,2013-04-09 11:07:00,
2013-04-09 05:12:00,31.0,31.0,29.54,ESE,120,0.0,0.0,100,-99.99,,,-99.99,,2013-04-09 11:12:00,
2013-04-09 05:17:00,31.0,31.0,29.54,ESE,120,0.0,0.0,100,-99.99,,,-99.99,,2013-04-09 11:17:00,
2013-04-09 05:27:00,31.0,31.0,29.53,ESE,120,0.0,0.0,100,-99.99,,,-99.99,,2013-04-09 11:27:00,
2013-04-09 05:32:00,32.0,32.0,29.52,ESE,120,0.0,0.0,100,-99.99,,,-99.99,,2013-04-09 11:32:00,
2013-04-09 05:47:00,31.0,31.0,29.52,ESE,120,0.0,0.0,100,-99.99,,,-99.99,,2013-04-09 11:47:00,
2013-04-09 05:52:00,31.0,31.0,29.51,ESE,120,0.0,0.0,100,-99.99,,,-99.99,,2013-04-09 11:52:00,
2013-04-09 05:57:00,31.0,31.0,29.51,ESE,120,0.0,0.0,100,-99.99,,,-99.99,,2013-04-09 11:57:00,
2013-04-09 06:07:00,31.0,31.0,29.51,ESE,120,0.0,0.0,100,-99.99,,,-99.99,,2013-04-09 12:07:00,
2013-04-09 06:17:00,31.0,31.0,29.51,ESE,120,0.0,0.0,100,-99.99,,,-99.99,,2013-04-09 12:17:00,
2013-04-09 06:27:00,31.0,31.0,29.52,ESE,120,0.0,0.0,100,-99.99,,,-99.99,,2013-04-09 12:27:00,
2013-04-09 06:32:00,31.0,31.0,29.52,ESE,120,0.0,0.0,100,-99.99,,,-99.99,,2013-04-09 12:32:00,
2013-04-09 06:42:00,31.0,31.0,29.52,ESE,120,0.0,0.0,100,-99.99,,,-99.99,,2013-04-09 12:42:00,
2013-04-09 06:47:00,31.0,31.0,29.52,ESE,120,0.0,0.0,100,-99.99,,,-99.99,,2013-04-09 12:47:00,
2013-04-09 06:57:00,31.0,31.0,29.52,ESE,120,0.0,0.0,100,-99.99,,,-99.99,,2013-04-09 12:57:00,
2013-04-09 07:07:00,31.0,31.0,29.52,ESE,120,0.0,0.0,100,-99.99,,,-99.99,,2013-04-09 13:07:00,
2013-04-09 07:17:00,31.0,31.0,29.51,ESE,120,0.0,0.0,100,-99.99,,,-99.99,,2013-04-09 13:17:00,
2013-04-09 07:22:00,31.0,31.0,29.51,ESE,120,0.0,0.0,100,-99.99,,,-99.99,,2013-04-09 13:22:00,
2013-04-09 07:27:00,31.0,31.0,29.51,ESE,120,0.0,0.0,100,-99.99,,,-99.99,,2013-04-09 13:27:00,
2013-04-09 07:37:00,31.0,31.0,29.51,ESE,120,0.0,0.0,100,-99.99,,,-99.99,,2013-04-09 13:37:00,
2013-04-09 07:47:00,31.0,31.0,29.51,ESE,120,0.0,0.0,100,-99.99,,,-99.99,,2013-04-09 13:47:00,
2013-04-09 07:57:00,31.0,31.0,29.53,ESE,120,0.0,0.0,100,-99.99,,,-99.99,,2013-04-09 13:57:00,
2013-04-09 08:07:00,31.0,31.0,29.54,ESE,120,0.0,0.0,100,-99.99,,,-99.99,,2013-04-09 14:07:00,
2013-04-09 08:12:00,31.0,31.0,29.54,ESE,120,0.0,0.0,100,-99.99,,,-99.99,,2013-04-09 14:12:00,
2013-04-09 08:22:00,31.0,31.0,29.54,ESE,120,0.0,0.0,100,-99.99,,,-99.99,,2013-04-09 14:22:00,
2013-04-09 08:32:00,31.0,31.0,29.54,ESE,120,0.0,0.0,100,-99.99,,,-99.99,,2013-04-09 14:32:00,
2013-04-09 08:42:00,31.0,31.0,29.54,ESE,120,0.0,0.0,100,-99.99,,,-99.99,,2013-04-09 14:42:00,
2013-04-09 08:47:00,30.0,30.0,29.54,ESE,120,0.0,0.0,100,-99.99,,,-99.99,,2013-04-09 14:47:00,
2013-04-09 08:52:00,30.0,30.0,29.55,ESE,120,0.0,0.0,100,-99.99,,,-99.99,,2013-04-09 14:52:00,
2013-04-09 09:02:00,28.0,28.0,29.56,East,80,11.0,12.0,100,-99.99,,,-99.99,,2013-04-09 15:02:00,
2013-04-09 09:07:00,28.0,28.0,29.56,ENE,70,5.0,12.0,100,-99.99,,,-99.99,,2013-04-09 15:07:00,
2013-04-09 09:12:00,28.0,28.0,29.55,East,90,5.0,9.0,100,-99.99,,,-99.99,,2013-04-09 15:12:00,
2013-04-09 09:17:00,28.0,28.0,29.55,NNE,30,3.0,6.0,100,-99.99,,,-99.99,,2013-04-09 15:17:00,
2013-04-09 09:27:00,28.0,28.0,29.56,NE,50,0.0,10.0,100,-99.99,,,-99.99,,2013-04-09 15:27:00,
2013-04-09 09:37:00,28.0,28.0,29.56,NW,310,6.0,0.0,100,-99.99,,,-99.99,,2013-04-09 15:37:00,
2013-04-09 09:42:00,28.0,28.0,29.56,NW,320,2.0,7.0,100,-99.99,,,-99.99,,2013-04-09 15:42:00,
2013-04-09 09:47:00,28.0,28.0,29.57,North,350,7.0,9.0,100,-99.99,,,-99.99,,2013-04-09 15:47:00,
2013-04-09 09:52:00,29.0,29.0,29.57,WNW,300,9.0,9.0,100,-99.99,,,-99.99,,2013-04-09 15:52:00,
2013-04-09 10:02:00,29.0,29.0,29.57,West,270,0.0,10.0,100,-99.99,,,-99.99,,2013-04-09 16:02:00,
2013-04-09 10:07:00,29.0,29.0,29.57,West,280,0.0,0.0,99,-99.99,,,-99.99,,2013-04-09 16:07:00,
2013-04-09 10:17:00,29.0,29.0,29.58,ENE,60,7.0,13.0,98,-99.99,,,-99.99,,2013-04-09 16:17:00,
2013-04-09 10:22:00,29.0,28.0,29.58,NNE,30,11.0,11.0,94,-99.99,,,-99.99,,2013-04-09 16:22:00,
2013-04-09 10:27:00,29.0,27.0,29.58,ENE,60,12.0,15.0,92,-99.99,,,-99.99,,2013-04-09 16:27:00,
2013-04-09 10:32:00,29.0,27.0,29.57,East,90,9.0,12.0,92,-99.99,,,-99.99,,2013-04-09 16:32:00,
2013-04-09 10:37:00,29.0,27.0,29.57,ENE,70,9.0,18.0,92,-99.99,,,-99.99,,2013-04-09 16:37:00,
2013-04-09 10:47:00,29.0,27.0,29.58,NNE,30,0.0,16.0,92,-99.99,,,-99.99,,2013-04-09 16:47:00,
2013-04-09 11:02:00,31.0,28.0,29.58,WNW,300,4.0,10.0,91,-99.99,,,-99.99,,2013-04-09 17:02:00,
2013-04-09 11:07:00,31.0,29.0,29.57,West,270,7.0,8.0,91,-99.99,,,-99.99,,2013-04-09 17:07:00,
2013-04-09 11:17:00,33.0,28.0,29.57,South,190,0.0,0.0,82,-99.99,,,-99.99,,2013-04-09 17:17:00,
2013-04-09 11:22:00,34.0,29.0,29.57,South,190,0.0,0.0,83,-99.99,,,-99.99,,2013-04-09 17:22:00,
2013-04-09 11:27:00,34.0,29.0,29.57,South,190,0.0,0.0,80,-99.99,,,-99.99,,2013-04-09 17:27:00,
2013-04-09 11:37:00,34.0,29.0,29.57,SW,220,5.0,10.0,80,-99.99,,,-99.99,,2013-04-09 17:37:00,
2013-04-09 11:42:00,35.0,28.0,29.57,West,260,9.0,9.0,77,-99.99,,,-99.99,,2013-04-09 17:42:00,
2013-04-09 11:47:00,35.0,28.0,29.57,SW,230,6.0,10.0,76,-99.99,,,-99.99,,2013-04-09 17:47:00,
2013-04-09 11:52:00,35.0,28.0,29.58,WNW,300,0.0,8.0,76,-99.99,,,-99.99,,2013-04-09 17:52:00,
2013-04-09 11:57:00,35.0,27.0,29.58,West,270,0.0,8.0,74,-99.99,,,-99.99,,2013-04-09 17:57:00,
2013-04-09 12:02:00,35.0,28.0,29.58,North,0,0.0,5.0,75,-99.99,,,-99.99,,2013-04-09 18:02:00,
2013-04-09 12:12:00,33.0,28.0,29.58,East,90,8.0,11.0,79,-99.99,,,-99.99,,2013-04-09 18:12:00,
2013-04-09 12:22:00,33.0,28.0,29.59,NE,50,9.0,9.0,81,-99.99,,,-99.99,,2013-04-09 18:22:00,
2013-04-09 12:27:00,32.0,28.0,29.59,ESE,110,0.0,11.0,83,-99.99,,,-99.99,,2013-04-09 18:27:00,
2013-04-09 12:37:00,33.0,28.0,29.59,NE,40,4.0,10.0,81,-99.99,,,-99.99,,2013-04-09 18:37:00,
2013-04-09 12:42:00,33.0,28.0,29.59,ENE,70,5.0,11.0,82,-99.99,,,-99.99,,2013-04-09 18:42:00,
2013-04-09 12:47:00,34.0,29.0,29.58,NE,40,0.0,6.0,82,-99.99,,,-99.99,,2013-04-09 18:47:00,
2013-04-09 12:57:00,36.0,29.0,29.58,West,270,6.0,9.0,75,-99.99,,,-99.99,,2013-04-09 18:57:00,
2013-04-09 13:12:00,37.0,29.0,29.59,NNE,30,3.0,9.0,70,-99.99,,,-99.99,,2013-04-09 19:12:00,
2013-04-09 13:17:00,36.0,28.0,29.59,NNE,30,8.0,11.0,71,-99.99,,,-99.99,,2013-04-09 19:17:00,
2013-04-09 13:27:00,34.0,27.0,29.59,NNE,30,0.0,12.0,76,-99.99,,,-99.99,,2013-04-09 19:27:00,
2013-04-09 13:37:00,32.0,27.0,29.60,ENE,60,7.0,12.0,82,-99.99,,,-99.99,,2013-04-09 19:37:00,
2013-04-09 13:42:00,32.0,27.0,29.60,NE,50,6.0,11.0,84,-99.99,,,-99.99,,2013-04-09 19:42:00,
2013-04-09 13:52:00,32.0,28.0,29.60,NNE,20,7.0,9.0,84,-99.99,,,-99.99,,2013-04-09 19:52:00,
2013-04-09 13:57:00,32.0,28.0,29.60,ENE,60,2.0,8.0,85,-99.99,,,-99.99,,2013-04-09 19:57:00,
2013-04-09 14:02:00,33.0,29.0,29.60,SW,220,3.0,5.0,85,-99.99,,,-99.99,,2013-04-09 20:02:00,
2013-04-09 14:12:00,35.0,30.0,29.60,West,270,6.0,8.0,83,-99.99,,,-99.99,,2013-04-09 20:12:00,
2013-04-09 14:22:00,36.0,30.0,29.61,South,180,0.0,5.0,79,-99.99,,,-99.99,,2013-04-09 20:22:00,
2013-04-09 14:27:00,36.0,30.0,29.61,South,180,0.0,0.0,78,-99.99,,,-99.99,,2013-04-09 20:27:00,
2013-04-09 14:37:00,34.0,30.0,29.62,NE,50,5.0,9.0,84,-99.99,,,-99.99,,2013-04-09 20:37:00,
2013-04-09 14:47:00,32.0,29.0,29.62,NNE,30,7.0,9.0,89,-99.99,,,-99.99,,2013-04-09 20:47:00,
2013-04-09 14:57:00,32.0,29.0,29.62,East,80,7.0,8.0,90,-99.99,,,-99.99,,2013-04-09 20:57:00,
2013-04-09 15:07:00,31.0,29.0,29.62,NNE,30,4.0,7.0,91,-99.99,,,-99.99,,2013-04-09 21:07:00,
2013-04-09 15:12:00,31.0,29.0,29.62,ENE,60,3.0,7.0,91,-99.99,,,-99.99,,2013-04-09 21:12:00,
2013-04-09 15:17:00,31.0,29.0,29.62,East,90,3.0,7.0,92,-99.99,,,-99.99,,2013-04-09 21:17:00,
2013-04-09 15:22:00,31.0,29.0,29.62,ENE,70,10.0,10.0,91,-99.99,,,-99.99,,2013-04-09 21:22:00,
2013-04-09 15:32:00,31.0,29.0,29.63,NE,40,4.0,10.0,91,-99.99,,,-99.99,,2013-04-09 21:32:00,
2013-04-09 15:42:00,31.0,29.0,29.64,ENE,60,5.0,12.0,90,-99.99,,,-99.99,,2013-04-09 21:42:00,
2013-04-09 15:52:00,32.0,29.0,29.64,NE,40,4.0,10.0,90,-99.99,,,-99.99,,2013-04-09 21:52:00,
2013-04-09 16:02:00,33.0,30.0,29.64,NE,40,1.0,6.0,88,-99.99,,,-99.99,,2013-04-09 22:02:00,
2013-04-09 16:12:00,34.0,30.0,29.64,NE,50,3.0,0.0,83,-99.99,,,-99.99,,2013-04-09 22:12:00,
2013-04-09 16:17:00,35.0,30.0,29.65,East,80,0.0,9.0,82,-99.99,,,-99.99,,2013-04-09 22:17:00,
2013-04-09 16:27:00,35.0,30.0,29.65,ENE,60,2.0,4.0,80,-99.99,,,-99.99,,2013-04-09 22:27:00,
2013-04-09 16:37:00,34.0,30.0,29.65,East,80,4.0,7.0,83,-99.99,,,-99.99,,2013-04-09 22:37:00,
2013-04-09 16:42:00,34.0,30.0,29.65,East,80,8.0,8.0,85,-99.99,,,-99.99,,2013-04-09 22:42:00,
2013-04-09 16:52:00,33.0,30.0,29.66,SE,130,3.0,8.0,88,-99.99,,,-99.99,,2013-04-09 22:52:00,
2013-04-09 17:02:00,33.0,30.0,29.67,East,80,0.0,6.0,90,-99.99,,,-99.99,,2013-04-09 23:02:00,
2013-04-09 17:07:00,33.0,30.0,29.67,ESE,120,5.0,0.0,90,-99.99,,,-99.99,,2013-04-09 23:07:00,
2013-04-09 17:12:00,33.0,30.0,29.67,East,90,0.0,7.0,90,-99.99,,,-99.99,,2013-04-09 23:12:00,
2013-04-09 17:22:00,33.0,30.0,29.67,East,100,3.0,5.0,91,-99.99,,,-99.99,,2013-04-09 23:22:00,
2013-04-09 17:27:00,32.0,30.0,29.67,East,80,0.0,4.0,92,-99.99,,,-99.99,,2013-04-09 23:27:00,
2013-04-09 17:37:00,32.0,30.0,29.68,South,170,3.0,4.0,93,-99.99,,,-99.99,,2013-04-09 23:37:00,
2013-04-09 17:47:00,32.0,30.0,29.68,South,170,5.0,6.0,92,-99.99,,,-99.99,,2013-04-09 23:47:00,
2013-04-09 17:57:00,32.0,30.0,29.69,SE,140,4.0,8.0,92,-99.99,,,-99.99,,2013-04-09 23:57:00,
2013-04-09 18:02:00,31.0,30.0,29.69,East,100,0.0,6.0,93,-99.99,,,-99.99,,2013-04-10 00:02:00,
2013-04-09 18:07:00,31.0,29.0,29.70,East,90,0.0,6.0,93,-99.99,,,-99.99,,2013-04-10 00:07:00,
2013-04-09 18:17:00,31.0,29.0,29.70,East,80,6.0,6.0,94,-99.99,,,-99.99,,2013-04-10 00:17:00,
2013-04-09 18:27:00,30.0,29.0,29.70,SSE,150,5.0,6.0,96,-99.99,,,-99.99,,2013-04-10 00:27:00,
2013-04-09 18:32:00,30.0,29.0,29.71,SSE,160,5.0,7.0,96,-99.99,,,-99.99,,2013-04-10 00:32:00,
2013-04-09 18:37:00,30.0,29.0,29.71,SE,130,6.0,11.0,95,-99.99,,,-99.99,,2013-04-10 00:37:00,
2013-04-09 18:42:00,30.0,29.0,29.71,SE,140,5.0,11.0,95,-99.99,,,-99.99,,2013-04-10 00:42:00,
2013-04-09 18:52:00,30.0,28.0,29.71,SSE,160,10.0,12.0,95,-99.99,,,-99.99,,2013-04-10 00:52:00,
2013-04-09 19:02:00,29.0,28.0,29.72,SSE,160,15.0,15.0,96,-99.99,,,-99.99,,2013-04-10 01:02:00,
2013-04-09 19:12:00,28.0,27.0,29.73,SSE,150,15.0,15.0,96,-99.99,,,-99.99,,2013-04-10 01:12:00,
2013-04-09 19:17:00,28.0,27.0,29.73,South,170,15.0,17.0,96,-99.99,,,-99.99,,2013-04-10 01:17:00,
2013-04-09 19:22:00,27.0,26.0,29.74,SSE,150,12.0,17.0,97,-99.99,,,-99.99,,2013-04-10 01:22:00,
2013-04-09 19:32:00,26.0,25.0,29.75,SSE,150,12.0,15.0,98,-99.99,,,-99.99,,2013-04-10 01:32:00,
2013-04-09 19:37:00,26.0,25.0,29.75,South,180,11.0,15.0,98,-99.99,,,-99.99,,2013-04-10 01:37:00,
2013-04-09 19:42:00,25.0,25.0,29.75,SSE,160,15.0,15.0,98,-99.99,,,-99.99,,2013-04-10 01:42:00,
2013-04-09 19:52:00,25.0,24.0,29.75,South,170,13.0,16.0,98,-99.99,,,-99.99,,2013-04-10 01:52:00,
2013-04-09 20:07:00,24.0,24.0,29.77,SSE,160,17.0,19.0,99,-99.99,,,-99.99,,2013-04-10 02:07:00,
2013-04-09 20:17:00,24.0,23.0,29.78,South,180,11.0,16.0,99,-99.99,,,-99.99,,2013-04-10 02:17:00,
2013-04-09 20:22:00,24.0,23.0,29.78,South,190,13.0,13.0,98,-99.99,,,-99.99,,2013-04-10 02:22:00,
2013-04-09 20:32:00,24.0,23.0,29.79,South,190,11.0,13.0,98,-99.99,,,-99.99,,2013-04-10 02:32:00,
2013-04-09 20:42:00,24.0,23.0,29.80,South,170,10.0,13.0,98,-99.99,,,-99.99,,2013-04-10 02:42:00,
2013-04-09 20:47:00,24.0,23.0,29.80,South,170,10.0,11.0,98,-99.99,,,-99.99,,2013-04-10 02:47:00,
2013-04-09 20:52:00,24.0,23.0,29.81,SSE,160,10.0,14.0,97,-99.99,,,-99.99,,2013-04-10 02:52:00,
2013-04-09 20:57:00,23.0,23.0,29.81,South,170,11.0,14.0,97,-99.99,,,-99.99,,2013-04-10 02:57:00,
2013-04-09 21:02:00,23.0,23.0,29.81,South,170,9.0,12.0,97,-99.99,,,-99.99,,2013-04-10 03:02:00,
2013-04-09 21:07:00,23.0,23.0,29.82,South,190,6.0,11.0,97,-99.99,,,-99.99,,2013-04-10 03:07:00,
2013-04-09 21:17:00,23.0,22.0,29.83,South,170,6.0,9.0,97,-99.99,,,-99.99,,2013-04-10 03:17:00,
2013-04-09 21:22:00,23.0,22.0,29.83,SE,130,8.0,8.0,97,-99.99,,,-99.99,,2013-04-10 03:22:00,
2013-04-09 21:27:00,23.0,22.0,29.84,ESE,120,0.0,9.0,97,-99.99,,,-99.99,,2013-04-10 03:27:00,
2013-04-09 21:37:00,22.0,22.0,29.85,SE,140,10.0,10.0,97,-99.99,,,-99.99,,2013-04-10 03:37:00,
2013-04-09 21:42:00,22.0,22.0,29.85,South,170,10.0,10.0,97,-99.99,,,-99.99,,2013-04-10 03:42:00,
2013-04-09 21:47:00,22.0,21.0,29.85,SSE,160,9.0,11.0,98,-99.99,,,-99.99,,2013-04-10 03:47:00,
2013-04-09 21:57:00,22.0,21.0,29.85,SSE,160,10.0,11.0,98,-99.99,,,-99.99,,2013-04-10 03:57:00,
2013-04-09 22:02:00,22.0,21.0,29.85,SSE,150,7.0,12.0,98,-99.99,,,-99.99,,2013-04-10 04:02:00,
2013-04-09 22:07:00,21.0,21.0,29.85,SE,130,10.0,13.0,98,-99.99,,,-99.99,,2013-04-10 04:07:00,
2013-04-09 22:12:00,21.0,21.0,29.85,SSE,160,9.0,15.0,98,-99.99,,,-99.99,,2013-04-10 04:12:00,
2013-04-09 22:17:00,21.0,21.0,29.86,SSE,160,8.0,13.0,99,-99.99,,,-99.99,,2013-04-10 04:17:00,
2013-04-09 22:27:00,21.0,20.0,29.85,SSE,160,8.0,13.0,98,-99.99,,,-99.99,,2013-04-10 04:27:00,
2013-04-09 22:37:00,21.0,20.0,29.86,South,170,11.0,14.0,98,-99.99,,,-99.99,,2013-04-10 04:37:00,
2013-04-09 22:42:00,21.0,20.0,29.86,South,170,8.0,13.0,98,-99.99,,,-99.99,,2013-04-10 04:42:00,
2013-04-09 22:47:00,21.0,20.0,29.86,SSE,160,13.0,13.0,98,-99.99,,,-99.99,,2013-04-10 04:47:00,
2013-04-09 22:52:00,20.0,20.0,29.86,SSE,160,9.0,14.0,99,-99.99,,,-99.99,,2013-04-10 04:52:00,
2013-04-09 22:57:00,20.0,20.0,29.86,SSW,200,8.0,14.0,98,-99.99,,,-99.99,,2013-04-10 04:57:00,
2013-04-09 23:02:00,20.0,20.0,29.86,South,180,9.0,13.0,98,-99.99,,,-99.99,,2013-04-10 05:02:00,
2013-04-09 23:12:00,20.0,19.0,29.87,South,170,7.0,13.0,98,-99.99,,,-99.99,,2013-04-10 05:12:00,
2013-04-09 23:22:00,20.0,19.0,29.87,SSE,160,8.0,13.0,98,-99.99,,,-99.99,,2013-04-10 05:22:00,
2013-04-09 23:32:00,20.0,19.0,29.87,South,170,11.0,11.0,98,-99.99,,,-99.99,,2013-04-10 05:32:00,
2013-04-09 23:42:00,19.0,19.0,29.87,SSE,150,7.0,11.0,97,-99.99,,,-99.99,,2013-04-10 05:42:00,
2013-04-09 23:52:00,19.0,18.0,29.88,SE,130,7.0,9.0,96,-99.99,,,-99.99,,2013-04-10 05:52:00,
2013-04-09 23:57:00,20.0,19.0,29.88,SSW,200,4.0,11.0,96,-99.99,,,-99.99,,2013-04-10 05:57:00,